Flight Track Log - Related Links

Times and Time Zones

All times are in EDT time to prevent confusion due to time zone crossing. See the SWA1969 flight status page for this flight to view local times or setup timezone preferences in your user account.

Time Position Orientation Groundspeed Altitude Reporting Facility
EDT Latitude Longitude Course Direction KTS MPH feet Rate Location/Type
Thu 14:33:59 41.7667 -87.7667 200° South 137 158 2,300  Level Chicago TRACON
Thu 14:34:59 41.7333 -87.7833 200° South 188 216 3,000 1,581 Climbing Chicago TRACON
Thu 14:36:27 41.7514 -87.8853 283° West 209 241 6,200 2,617 Climbing Chicago Center
Thu 14:37:28 41.7639 -87.9825 280° West 232 267 9,500 2,585 Climbing Chicago Center
Thu 14:38:30 41.7775 -88.0794 281° West 269 310 11,500 2,146 Climbing Chicago Center
Thu 14:39:31 41.7742 -88.1828 268° West 280 322 13,900 1,805 Climbing Chicago Center
Thu 14:40:33 41.7719 -88.3058 269° West 328 377 15,200 1,548 Climbing Chicago Center
Thu 14:41:35 41.7717 -88.4403 270° West 361 415 17,100 2,341 Climbing Chicago Center
Thu 14:42:36 41.7775 -88.6083 273° West 379 436 20,000 2,244 Climbing Chicago Center
Thu 14:43:38 41.7503 -88.7464 255° West 383 441 21,700 1,790 Climbing Chicago Center
Thu 14:44:40 41.7192 -88.8858 253° West 391 450 23,700 1,854 Climbing Chicago Center
Thu 14:45:41 41.6881 -89.0239 253° West 393 452 25,500 1,561 Climbing Chicago Center
Thu 14:46:43 41.6575 -89.1644 254° West 395 455 26,900 1,220 Climbing Chicago Center
Thu 14:47:44 41.6258 -89.3097 254° West 407 468 28,000 1,707 Climbing Chicago Center
Thu 14:48:46 41.5883 -89.4819 254° West 404 465 30,400 1,887 Climbing Chicago Center
Thu 14:49:48 41.5600 -89.6008 252° West 390 449 31,900 1,561 Climbing Chicago Center
Thu 14:50:49 41.5306 -89.7342 254° West 378 435 33,600 1,024 Climbing Chicago Center
Thu 14:51:51 41.5014 -89.8647 253° West 371 427 34,000 195 Climbing Chicago Center
Thu 14:52:52 41.4650 -90.0217 253° West 371 427 34,000  Level Chicago Center
Thu 14:53:54 41.4344 -90.1528 253° West 372 428 34,000  Level Chicago Center
Thu 14:54:55 41.4058 -90.2814 254° West 368 423 34,000  Level Chicago Center
Thu 14:55:57 41.3761 -90.4106 253° West 367 422 34,000  Level Chicago Center
Thu 14:56:58 41.3458 -90.5403 253° West 367 422 34,000  Level Chicago Center
Thu 14:57:59 41.3128 -90.6719 252° West 376 433 34,000  Level Chicago Center
Thu 14:59:01 41.2753 -90.7972 248° West 369 425 34,000 98 Level Chicago Center
Thu 15:00:02 41.2306 -90.9458 248° West 363 418 34,200 488 Climbing Chicago Center
Thu 15:01:04 41.1942 -91.0686 249° West 361 415 35,000 390 Climbing Chicago Center
Thu 15:02:05 41.1578 -91.1922 249° West 360 414 35,000  Level Chicago Center
Thu 15:03:07 41.1208 -91.3133 248° West 357 411 35,000  Level Chicago Center
Thu 15:04:08 41.0850 -91.4361 249° West 356 410 35,000 246 Level Chicago Center
Thu 15:05:09 41.0478 -91.5589 248° West 359 413 35,500 488 Climbing Chicago Center
Thu 15:06:11 41.0083 -91.6878 248° West 356 410 36,000 244 Climbing Chicago Center
Thu 15:07:12 40.9708 -91.8086 248° West 358 412 36,000  Level Chicago Center
Thu 15:08:14 40.9333 -91.9311 248° West 362 417 36,000  Level Chicago Center
Thu 15:09:15 40.8950 -92.0556 248° West 368 423 36,000  Level Chicago Center
Thu 15:10:17 40.8489 -92.2061 248° West 373 429 36,000  Level Chicago Center
Thu 15:11:18 40.8092 -92.3322 247° West 375 432 36,000  Level Chicago Center
Thu 15:12:19 40.7694 -92.4592 248° West 379 436 36,000  Level Chicago Center
Thu 15:13:21 40.7294 -92.5861 247° West 380 437 36,000  Level Chicago Center
Thu 15:14:23 40.6889 -92.7139 247° West 382 440 36,000  Level Chicago Center
Thu 15:15:24 40.6492 -92.8417 248° West 383 441 36,000  Level Chicago Center
Thu 15:16:26 40.6008 -92.9914 247° West 377 434 36,000  Level Chicago Center
Thu 15:16:49 40.5883 -93.0269 245° Southwest 375 432 36,000  Level Kansas City Center
Thu 15:17:49 40.5450 -93.1650 248° West 373 429 36,000  Level Kansas City Center
Thu 15:18:51 40.5044 -93.2900 247° West 376 433 36,000  Level Kansas City Center
Thu 15:19:52 40.4642 -93.4158 247° West 377 434 36,000  Level Kansas City Center
Thu 15:20:55 40.4222 -93.5406 246° West 378 435 36,000  Level Kansas City Center
Thu 15:21:57 40.3814 -93.6656 247° West 378 435 36,000  Level Kansas City Center
Thu 15:22:58 40.3406 -93.7900 247° West 375 432 36,000  Level Kansas City Center
Thu 15:23:59 40.2917 -93.9417 247° West 380 437 36,000  Level Kansas City Center
Thu 15:25:00 40.2500 -94.0656 246° West 377 434 36,000  Level Kansas City Center
Thu 15:26:01 40.2083 -94.1931 247° West 375 432 36,000  Level Kansas City Center
Thu 15:27:05 40.1683 -94.3106 246° West 371 427 36,000  Level Kansas City Center
Thu 15:28:05 40.1219 -94.4486 246° West 371 427 36,000  Level Kansas City Center
Thu 15:29:09 40.0833 -94.5661 247° West 369 425 36,000  Level Kansas City Center
Thu 15:30:10 40.0358 -94.7025 246° West 372 428 36,000  Level Kansas City Center
Thu 15:31:11 39.9950 -94.8222 246° West 376 433 36,000  Level Kansas City Center
Thu 15:32:13 39.9481 -94.9592 246° West 373 429 36,000  Level Kansas City Center
Thu 15:33:13 39.9042 -95.0761 244° Southwest 374 430 36,000  Level Kansas City Center
Thu 15:34:16 39.8611 -95.1931 244° Southwest 376 433 36,000  Level Kansas City Center
Thu 15:35:17 39.8117 -95.3275 244° Southwest 373 429 36,000  Level Kansas City Center
Thu 15:36:18 39.7692 -95.4419 244° Southwest 369 425 36,000  Level Kansas City Center
Thu 15:37:21 39.7186 -95.5744 244° Southwest 369 425 36,000  Level Kansas City Center
Thu 15:38:22 39.6767 -95.6878 244° Southwest 365 420 36,000  Level Kansas City Center
Thu 15:39:23 39.6261 -95.8208 244° Southwest 368 423 36,000  Level Kansas City Center
Thu 15:40:25 39.5831 -95.9339 244° Southwest 365 420 36,000  Level Kansas City Center
Thu 15:41:27 39.5322 -96.0656 243° Southwest 367 422 36,000  Level Kansas City Center
Thu 15:42:28 39.4939 -96.1658 244° Southwest 367 422 36,000  Level Kansas City Center
Thu 15:43:30 39.4397 -96.3069 244° Southwest 366 421 36,000  Level Kansas City Center
Thu 15:44:31 39.3947 -96.4228 243° Southwest 363 418 36,000  Level Kansas City Center
Thu 15:45:35 39.3522 -96.5319 243° Southwest 363 418 36,000  Level Kansas City Center
Thu 15:46:35 39.3014 -96.6625 243° Southwest 364 419 36,000  Level Kansas City Center
Thu 15:47:36 39.2575 -96.7744 243° Southwest 365 420 36,000  Level Kansas City Center
Thu 15:48:39 39.2078 -96.9067 244° Southwest 366 421 36,000  Level Kansas City Center
Thu 15:49:40 39.1619 -97.0186 242° Southwest 367 422 36,000  Level Kansas City Center
Thu 15:50:41 39.1100 -97.1514 243° Southwest 370 426 36,000  Level Kansas City Center
Thu 15:51:45 39.0669 -97.2650 244° Southwest 371 427 36,000  Level Kansas City Center
Thu 15:52:47 39.0214 -97.3811 243° Southwest 376 433 36,000  Level Kansas City Center
Thu 15:53:48 38.9675 -97.5150 243° Southwest 378 435 36,000  Level Kansas City Center
Thu 15:54:49 38.9222 -97.6303 243° Southwest 379 436 36,000  Level Kansas City Center
Thu 15:55:51 38.8789 -97.7744 249° West 388 447 36,000  Level Kansas City Center
Thu 15:56:51 38.8428 -97.8864 248° West 388 447 36,000  Level Kansas City Center
Thu 15:57:55 38.7950 -98.0406 248° West 389 448 36,000  Level Kansas City Center
Thu 15:58:57 38.7556 -98.1678 248° West 387 445 36,000  Level Kansas City Center
Thu 15:59:57 38.7150 -98.2953 248° West 388 447 36,000  Level Kansas City Center
Thu 16:01:00 38.6758 -98.4231 249° West 388 447 36,000  Level Kansas City Center
Thu 16:02:01 38.6344 -98.5519 248° West 392 451 36,000  Level Kansas City Center
Thu 16:03:05 38.5933 -98.6819 248° West 395 455 36,000  Level Kansas City Center
Thu 16:04:06 38.5450 -98.8375 248° West 394 453 36,000  Level Kansas City Center
Thu 16:05:07 38.5014 -98.9683 247° West 399 459 36,000  Level Kansas City Center
Thu 16:06:10 38.4600 -99.0975 248° West 398 458 36,000  Level Kansas City Center
Thu 16:07:11 38.4175 -99.2256 247° West 394 453 36,000  Level Kansas City Center
Thu 16:08:12 38.3764 -99.3547 248° West 394 453 36,000  Level Kansas City Center
Thu 16:09:13 38.3339 -99.4828 247° West 393 452 36,000  Level Kansas City Center
Thu 16:10:16 38.2858 -99.6300 247° West 393 452 36,000  Level Kansas City Center
Thu 16:11:18 38.2458 -99.7533 248° West 393 452 36,000  Level Kansas City Center
Thu 16:12:21 38.1981 -99.8981 247° West 397 457 36,000  Level Kansas City Center
Thu 16:13:21 38.1569 -100.0211 247° West 396 456 36,000  Level Kansas City Center
Thu 16:14:22 38.1083 -100.1647 247° West 397 457 36,000  Level Kansas City Center
Thu 16:15:26 38.0683 -100.2881 248° West 396 456 36,000  Level Kansas City Center
Thu 16:16:27 38.0250 -100.4344 249° West 397 457 36,000  Level Kansas City Center
Thu 16:17:27 37.9869 -100.5589 249° West 396 456 36,000  Level Kansas City Center
Thu 16:18:32 37.9436 -100.7025 249° West 395 455 36,000  Level Kansas City Center
Thu 16:19:33 37.9058 -100.8244 249° West 392 451 36,000  Level Kansas City Center
Thu 16:20:33 37.8628 -100.9650 249° West 389 448 36,000  Level Kansas City Center
Thu 16:21:36 37.8256 -101.0858 249° West 389 448 36,000  Level Kansas City Center
Thu 16:22:38 37.7817 -101.2269 249° West 390 449 36,000  Level Kansas City Center
Thu 16:23:41 37.7436 -101.3511 249° West 395 455 36,000  Level Kansas City Center
Thu 16:24:41 37.6986 -101.4947 248° West 395 455 36,000  Level Kansas City Center
Thu 16:25:44 37.6597 -101.6192 248° West 398 458 36,000  Level Kansas City Center
Thu 16:26:44 37.6206 -101.7431 248° West 398 458 36,000  Level Kansas City Center
Thu 16:27:48 37.5753 -101.8878 248° West 397 457 36,000  Level Kansas City Center
Thu 16:28:32 37.5431 -101.9917 249° West 398 458 36,000  Level Albuquerque Center
Thu 16:29:34 37.5044 -102.1164 249° West 398 458 36,000  Level Albuquerque Center
Thu 16:30:36 37.4586 -102.2611 248° West 400 460 36,000  Level Albuquerque Center
Thu 16:31:38 37.4183 -102.3861 248° West 402 463 36,000  Level Albuquerque Center
Thu 16:32:40 37.3722 -102.5281 248° West 404 465 36,000  Level Albuquerque Center
Thu 16:33:42 37.3319 -102.6539 248° West 405 466 36,000  Level Albuquerque Center
Thu 16:34:44 37.2842 -102.7994 248° West 404 465 36,000  Level Albuquerque Center
Thu 16:35:47 37.2431 -102.9236 247° West 402 463 36,000  Level Albuquerque Center
Thu 16:36:49 37.1947 -103.0697 247° West 405 466 36,000  Level Albuquerque Center
Thu 16:37:51 37.1511 -103.1967 247° West 410 472 36,000  Level Albuquerque Center
Thu 16:38:54 37.1028 -103.3431 248° West 407 468 36,000  Level Albuquerque Center
Thu 16:39:55 37.0606 -103.4697 247° West 410 472 36,000  Level Albuquerque Center
Thu 16:40:57 37.0181 -103.5967 247° West 410 472 36,000  Level Albuquerque Center
Thu 16:41:59 36.9678 -103.7436 247° West 409 471 36,000  Level Albuquerque Center
Thu 16:43:01 36.9250 -103.8689 247° West 408 470 36,000  Level Albuquerque Center
Thu 16:44:03 36.8767 -104.0133 247° West 405 466 36,000  Level Albuquerque Center
Thu 16:45:05 36.8328 -104.1381 246° West 406 467 36,000  Level Albuquerque Center
Thu 16:46:07 36.7828 -104.2817 247° West 404 465 36,000  Level Albuquerque Center
Thu 16:47:09 36.7400 -104.4042 246° West 403 464 36,000  Level Albuquerque Center
Thu 16:48:11 36.6903 -104.5469 247° West 401 461 36,000  Level Albuquerque Center
Thu 16:49:13 36.6433 -104.6825 247° West 407 468 36,000  Level Albuquerque Center
Thu 16:50:15 36.5981 -104.8125 247° West 407 468 36,000  Level Albuquerque Center
Thu 16:51:17 36.5533 -104.9425 247° West 407 468 36,000  Level Albuquerque Center
Thu 16:52:19 36.5069 -105.0717 246° West 407 468 36,000  Level Albuquerque Center
Thu 16:53:21 36.4589 -105.2086 246° West 410 472 36,000  Level Albuquerque Center
Thu 16:54:23 36.4122 -105.3367 246° West 421 484 36,000  Level Albuquerque Center
Thu 16:55:25 36.3661 -105.4681 246° West 418 481 36,000  Level Albuquerque Center
Thu 16:56:27 36.3144 -105.6103 246° West 411 473 36,000  Level Albuquerque Center
Thu 16:57:30 36.2681 -105.7383 246° West 408 470 36,000  Level Albuquerque Center
Thu 16:58:32 36.2219 -105.8653 246° West 406 467 36,000  Level Albuquerque Center
Thu 16:59:34 36.1772 -105.9942 247° West 407 468 36,000  Level Albuquerque Center
Thu 17:00:36 36.1308 -106.1167 245° Southwest 399 459 36,000  Level Albuquerque Center
Thu 17:01:38 36.0767 -106.2672 246° West 400 460 36,000  Level Albuquerque Center
Thu 17:02:40 36.0300 -106.3919 245° Southwest 401 461 36,000  Level Albuquerque Center
Thu 17:03:42 35.9847 -106.5175 246° West 401 461 36,000  Level Albuquerque Center
Thu 17:04:44 35.9381 -106.6406 245° Southwest 399 459 36,000  Level Albuquerque Center
Thu 17:05:46 35.8897 -106.7722 246° West 400 460 36,000  Level Albuquerque Center
Thu 17:06:48 35.8381 -106.9119 246° West 400 460 36,000  Level Albuquerque Center
Thu 17:07:50 35.7922 -107.0328 245° Southwest 404 465 36,000  Level Albuquerque Center
Thu 17:08:52 35.7386 -107.1728 245° Southwest 404 465 36,000  Level Albuquerque Center
Thu 17:09:54 35.6939 -107.2922 245° Southwest 403 464 36,000  Level Albuquerque Center
Thu 17:10:56 35.6411 -107.4311 245° Southwest 402 463 36,000  Level Albuquerque Center
Thu 17:11:58 35.5958 -107.5494 245° Southwest 401 461 36,000  Level Albuquerque Center
Thu 17:13:00 35.5433 -107.6875 245° Southwest 400 460 36,000  Level Albuquerque Center
Thu 17:14:02 35.4975 -107.8069 245° Southwest 401 461 36,000  Level Albuquerque Center
Thu 17:15:05 35.4519 -107.9247 245° Southwest 400 460 36,000  Level Albuquerque Center
Thu 17:16:07 35.3978 -108.0661 245° Southwest 405 466 36,000  Level Albuquerque Center
Thu 17:17:09 35.3500 -108.1872 244° Southwest 408 470 36,000  Level Albuquerque Center
Thu 17:18:11 35.2953 -108.3278 245° Southwest 409 471 36,000  Level Albuquerque Center
Thu 17:19:13 35.2486 -108.4469 244° Southwest 406 467 36,000  Level Albuquerque Center
Thu 17:20:15 35.1939 -108.5861 244° Southwest 405 466 36,000  Level Albuquerque Center
Thu 17:21:17 35.1475 -108.7039 244° Southwest 403 464 36,000  Level Albuquerque Center
Thu 17:22:19 35.0928 -108.8408 244° Southwest 401 461 36,000  Level Albuquerque Center
Thu 17:23:21 35.0472 -108.9572 244° Southwest 397 457 36,000  Level Albuquerque Center
Thu 17:24:23 34.9922 -109.0931 244° Southwest 398 458 36,000  Level Albuquerque Center
Thu 17:25:25 34.9478 -109.2094 245° Southwest 397 457 36,000  Level Albuquerque Center
Thu 17:26:27 34.9053 -109.3278 246° West 396 456 36,000  Level Albuquerque Center
Thu 17:27:29 34.8564 -109.4642 246° West 394 453 36,000  Level Albuquerque Center
Thu 17:28:31 34.8114 -109.5750 244° Southwest 387 445 36,000  Level Albuquerque Center
Thu 17:29:33 34.7614 -109.7122 246° West 392 451 36,000  Level Albuquerque Center
Thu 17:30:35 34.7181 -109.8283 246° West 394 453 36,000  Level Albuquerque Center
Thu 17:31:37 34.6672 -109.9664 246° West 398 458 36,000  Level Albuquerque Center
Thu 17:32:39 34.6247 -110.0833 246° West 396 456 36,000 -48 Level Albuquerque Center
Thu 17:33:42 34.5769 -110.2233 248° West 400 460 35,900 -1,248 Descending Albuquerque Center
Thu 17:34:44 34.5311 -110.3328 243° Southwest 388 447 33,400 -2,129 Descending Albuquerque Center
Thu 17:35:46 34.4903 -110.4511 247° West 410 472 31,500 -2,226 Descending Albuquerque Center
Thu 17:36:48 34.4356 -110.5958 245° Southwest 399 459 28,800 -2,323 Descending Albuquerque Center
Thu 17:37:50 34.3914 -110.7119 245° Southwest 385 443 26,700 -1,984 Descending Albuquerque Center
Thu 17:38:52 34.3381 -110.8189 239° Southwest 377 434 24,700 -1,984 Descending Albuquerque Center
Thu 17:39:54 34.2658 -110.9106 226° Southwest 374 430 22,600 -1,984 Descending Albuquerque Center
Thu 17:40:56 34.1950 -111.0028 227° Southwest 375 432 20,600 -1,887 Descending Albuquerque Center
Thu 17:41:58 34.1258 -111.0908 227° Southwest 366 421 18,700 -2,032 Descending Albuquerque Center
Thu 17:43:00 34.0447 -111.1953 227° Southwest 358 412 16,400 -2,081 Descending Albuquerque Center
Thu 17:44:02 33.9767 -111.2828 227° Southwest 356 410 14,400 -1,887 Descending Albuquerque Center
Thu 17:45:04 33.9108 -111.3669 227° Southwest 348 400 12,500 -1,548 Descending Albuquerque Center
Thu 17:46:06 33.8411 -111.4411 221° Southwest 333 383 11,200 -1,016 Descending Albuquerque Center
Thu 17:47:08 33.7681 -111.5022 215° Southwest 318 366 10,400 -968 Descending Albuquerque Center
Thu 17:48:10 33.6994 -111.5614 216° Southwest 301 346 9,200 -871 Descending Albuquerque Center
Thu 17:49:12 33.6364 -111.6158 216° Southwest 279 321 8,600 -1,065 Descending Albuquerque Center
Thu 17:50:14 33.5628 -111.6767 215° Southwest 268 308 7,000 -1,452 Descending Albuquerque Center
Thu 17:51:16 33.5017 -111.7283 215° Southwest 269 310 5,600 -1,152 Descending Albuquerque Center
Thu 17:52:19 33.4606 -111.7828 228° Southwest 220 253 4,600 -960 Descending Albuquerque Center
Thu 17:53:21 33.4408 -111.8394 247° West 193 222 3,600 -919 Descending Albuquerque Center
Thu 17:54:23 33.4406 -111.8944 270° West 170 196 2,700 -823 Descending Albuquerque Center
Thu 17:55:25 33.4411 -111.9453 271° West 155 178 1,900 -774 Descending Albuquerque Center
Thu 17:56:27 33.4397 -111.9975 268° West 154 177 1,100 -774 Descending Albuquerque Center
Thu 17:58:00 33.4343 -112.0116 270° West  Level Estimated

Login

Don't have an account? Register now (free) for customized features, flight alerts, and more!